BAW239 EGLL-KBOS

Flight info

Callsign BAW239
Flight time N/A
Altitude 38000
Route CPT L9 BUCGO DCT FELCA DCT OFSOX DCT BANBA DCT TOBOR/M082F390 NATC ELSIR/N0466F400 DCT TUSKY DCT EURRO OOSHN5
Aircraft B772/H-SDE2E3FGHIJ5LORVWXY/LB1D1

Departure

Time 2026-05-06 11:54
Airport London Heathrow Airport (EGLL)

Arrival

Time N/A
Airport Boston Logan International Airport (KBOS)
Time Latitude Longitude Altitude Speed Heading
2026-05-06 11:24 51.47048 -0.48231 90 ft 0 kts 90°
2026-05-06 11:24 51.47048 -0.48232 90 ft 0 kts 90°
2026-05-06 11:31 51.47049 -0.48227 90 ft 0 kts 90°
2026-05-06 11:31 51.46982 -0.48227 93 ft 0 kts 90°
2026-05-06 11:34 51.46982 -0.48228 93 ft 0 kts 90°
2026-05-06 11:42 51.46982 -0.48255 93 ft 4 kts 90°
2026-05-06 11:43 51.46982 -0.48298 92 ft 4 kts 90°
2026-05-06 11:43 51.46983 -0.48335 91 ft 4 kts 116°
2026-05-06 11:43 51.47000 -0.48357 91 ft 4 kts 176°
2026-05-06 11:44 51.47026 -0.48357 89 ft 3 kts 179°
2026-05-06 11:47 51.46990 -0.48356 93 ft 10 kts 179°
2026-05-06 11:47 51.46924 -0.48354 94 ft 10 kts 176°
2026-05-06 11:48 51.46857 -0.48353 90 ft 10 kts 180°
2026-05-06 11:48 51.46791 -0.48353 91 ft 10 kts 180°
2026-05-06 11:48 51.46741 -0.48412 94 ft 10 kts 249°
2026-05-06 11:48 51.46739 -0.48520 90 ft 10 kts 272°
2026-05-06 11:49 51.46740 -0.48591 90 ft 6 kts 271°
2026-05-06 11:49 51.46741 -0.48648 90 ft 5 kts 271°
2026-05-06 11:49 51.46740 -0.48696 90 ft 4 kts 262°
2026-05-06 11:49 51.46700 -0.48744 95 ft 6 kts 190°
2026-05-06 11:50 51.46666 -0.48747 93 ft 4 kts 182°
2026-05-06 11:50 51.46644 -0.48751 91 ft 2 kts 188°
2026-05-06 11:50 51.46632 -0.48754 92 ft 1 kts 189°
2026-05-06 11:50 51.46630 -0.48755 91 ft 0 kts 189°
2026-05-06 11:51 51.46613 -0.48761 94 ft 4 kts 195°
2026-05-06 11:51 51.46588 -0.48772 93 ft 4 kts 194°
2026-05-06 11:51 51.46554 -0.48783 94 ft 5 kts 188°
2026-05-06 11:52 51.46522 -0.48779 94 ft 6 kts 168°
2026-05-06 11:52 51.46492 -0.48747 94 ft 4 kts 134°
2026-05-06 11:52 51.46478 -0.48684 93 ft 7 kts 95°
2026-05-06 11:52 51.46478 -0.48610 92 ft 6 kts 89°
2026-05-06 11:53 51.46479 -0.48541 91 ft 13 kts 89°
2026-05-06 11:53 51.46480 -0.48105 92 ft 75 kts 90°
2026-05-06 11:53 51.46487 -0.46886 96 ft 144 kts 88°
2026-05-06 11:53 51.46455 -0.45030 380 ft 174 kts 87°
2026-05-06 11:54 51.46460 -0.43065 1187 ft 176 kts 82°
2026-05-06 11:54 51.46423 -0.41012 1684 ft 200 kts 98°
2026-05-06 11:54 51.45811 -0.38836 1927 ft 231 kts 127°
2026-05-06 11:54 51.44501 -0.37167 2227 ft 255 kts 156°
2026-05-06 11:55 51.42727 -0.36726 2828 ft 266 kts 188°
2026-05-06 11:55 51.41009 -0.37781 3470 ft 270 kts 219°
2026-05-06 11:55 51.39853 -0.40100 4141 ft 268 kts 251°
2026-05-06 11:55 51.39599 -0.42946 4890 ft 260 kts 281°
2026-05-06 11:56 51.40000 -0.45734 5520 ft 259 kts 288°
2026-05-06 11:56 51.40426 -0.48505 6230 ft 253 kts 287°
2026-05-06 11:56 51.40826 -0.51293 6841 ft 259 kts 286°
2026-05-06 11:56 51.41212 -0.54150 7425 ft 265 kts 285°
2026-05-06 11:57 51.41586 -0.57063 8069 ft 268 kts 284°
2026-05-06 11:57 51.41951 -0.60011 8724 ft 271 kts 283°
2026-05-06 11:57 51.42307 -0.62974 9339 ft 275 kts 283°
2026-05-06 11:57 51.42664 -0.66001 9966 ft 278 kts 282°
2026-05-06 11:58 51.43027 -0.69108 10272 ft 292 kts 282°
2026-05-06 11:58 51.43410 -0.72423 10436 ft 311 kts 282°
2026-05-06 11:58 51.43818 -0.75925 10703 ft 328 kts 282°
2026-05-06 11:58 51.44262 -0.79568 11296 ft 334 kts 282°
2026-05-06 11:59 51.44713 -0.83251 12173 ft 336 kts 282°
2026-05-06 11:59 51.45162 -0.86925 13156 ft 337 kts 282°
2026-05-06 11:59 51.45610 -0.90608 13947 ft 342 kts 283°
2026-05-06 11:59 51.46209 -0.94344 14712 ft 346 kts 287°